| time (UTC) | temp C | wind direction | speed KPH | gust KPH | rain 1hr cm | rain 24hr cm | rain mn cm | humidity % | barometer mb |
| 20260505011618 | 11 | 221 | 3.2 | 12.9 | 0.00 | 0.00 | 0.00 | 80 | 1012.7 |
| 20260505010104 | 11 | 195 | 4.8 | 11.3 | 0.00 | 0.00 | 0.00 | 79 | 1012.7 |
| 20260505004557 | 11 | 178 | 3.2 | 8.0 | 0.00 | 0.00 | 0.00 | 79 | 1012.4 |
| 20260505003054 | 11 | 207 | 3.2 | 11.3 | 0.00 | 0.00 | 0.00 | 78 | 1012.2 |
| 20260505001558 | 11 | 190 | 3.2 | 9.7 | 0.00 | 0.00 | 0.00 | 77 | 1011.8 |
| 20260505000108 | 12 | 175 | 4.8 | 11.3 | 0.00 | 0.00 | 0.00 | 76 | 1011.5 |
| 20260504234606 | 12 | 182 | 3.2 | 17.7 | 0.00 | 0.00 | 0.00 | 74 | 1011.4 |
| 20260504233058 | 12 | 181 | 4.8 | 14.5 | 0.00 | 0.00 | 0.00 | 72 | 1011.1 |
| 20260504231554 | 13 | 255 | 6.4 | 19.3 | 0.00 | 0.00 | 0.00 | 70 | 1011.0 |
| 20260504230059 | 13 | 206 | 6.4 | 19.3 | 0.00 | 0.00 | 0.00 | 68 | 1011.0 |
| 20260504224602 | 13 | 233 | 8.0 | 19.3 | 0.00 | 0.00 | 0.00 | 66 | 1011.1 |
| 20260504223058 | 13 | 171 | 8.0 | 25.7 | 0.00 | 0.00 | 0.00 | 63 | 1011.0 |
| 20260504221556 | 14 | 176 | 8.0 | 24.1 | 0.00 | 0.00 | 0.00 | 61 | 1010.9 |
| 20260504214559 | 15 | 273 | 4.8 | 17.7 | 0.00 | 0.00 | 0.00 | 58 | 1011.0 |
| 20260504213110 | 16 | 216 | 4.8 | 19.3 | 0.00 | 0.00 | 0.00 | 56 | 1011.1 |
| 20260504211555 | 16 | 215 | 8.0 | 16.1 | 0.00 | 0.00 | 0.00 | 54 | 1010.9 |
| 20260504210105 | 17 | 148 | 4.8 | 22.5 | 0.00 | 0.00 | 0.00 | 52 | 1011.2 |
| 20260504204603 | 17 | 177 | 8.0 | 22.5 | 0.00 | 0.00 | 0.00 | 49 | 1011.0 |
| 20260504203059 | 17 | 198 | 9.7 | 20.9 | 0.00 | 0.00 | 0.00 | 48 | 1010.9 |
| 20260504201558 | 17 | 246 | 8.0 | 22.5 | 0.00 | 0.00 | 0.00 | 47 | 1010.8 |
| 20260504200057 | 17 | 207 | 6.4 | 20.9 | 0.00 | 0.00 | 0.00 | 49 | 1010.8 |
| 20260504194559 | 17 | 169 | 6.4 | 17.7 | 0.00 | 0.00 | 0.00 | 49 | 1011.0 |
| 20260504193113 | 17 | 216 | 6.4 | 20.9 | 0.00 | 0.00 | 0.00 | 49 | 1011.0 |
| 20260504191559 | 17 | 164 | 8.0 | 16.1 | 0.00 | 0.00 | 0.00 | 49 | 1010.9 |
| 20260504190108 | 17 | 208 | 9.7 | 25.7 | 0.00 | 0.00 | 0.00 | 49 | 1010.9 |
| 20260504184559 | 17 | 212 | 6.4 | 20.9 | 0.00 | 0.00 | 0.00 | 49 | 1011.1 |
| 20260504183102 | 17 | 234 | 8.0 | 20.9 | 0.00 | 0.00 | 0.00 | 49 | 1011.3 |
| 20260504181558 | 17 | 225 | 9.7 | 22.5 | 0.00 | 0.00 | 0.00 | 45 | 1011.3 |
| 20260504180140 | 17 | 175 | 6.4 | 22.5 | 0.00 | 0.00 | 0.00 | 45 | 1011.7 |
| 20260504174559 | 18 | 174 | 8.0 | 27.4 | 0.00 | 0.00 | 0.00 | 40 | 1011.7 |
| 20260504173056 | 18 | 250 | 8.0 | 22.5 | 0.00 | 0.00 | 0.00 | 39 | 1011.7 |
| 20260504171556 | 18 | 248 | 6.4 | 25.7 | 0.00 | 0.00 | 0.00 | 39 | 1011.7 |
| 20260504120108 | 11 | 223 | 3.2 | 9.7 | 0.00 | 0.03 | 0.00 | 61 | 1013.7 |
| 20260504100118 | 8 | 253 | 3.2 | 11.3 | 0.00 | 0.03 | 0.00 | 69 | 1013.1 |
| 20260504081608 | 6 | 0 | 0.0 | 0.0 | 0.00 | 0.03 | 0.00 | 73 | 1012.9 |
| 20260504060107 | 5 | 0 | 0.0 | 0.0 | 0.00 | 0.03 | 0.00 | 74 | 1012.5 |
| 20260504050110 | 6 | 0 | 0.0 | 0.0 | 0.00 | 0.03 | 0.00 | 75 | 1012.4 |
| 20260504044557 | 6 | 0 | 0.0 | 1.6 | 0.00 | 0.03 | 0.00 | 75 | 1012.5 |
| 20260504043102 | 6 | 0 | 0.0 | 0.0 | 0.00 | 0.03 | 0.00 | 75 | 1012.6 |
| 20260504041559 | 6 | 0 | 0.0 | 1.6 | 0.00 | 0.03 | 0.00 | 74 | 1012.5 |
| 20260504040104 | 6 | 0 | 0.0 | 0.0 | 0.00 | 0.03 | 0.00 | 73 | 1012.4 |
| 20260504034610 | 6 | 0 | 0.0 | 0.0 | 0.00 | 0.03 | 0.03 | 72 | 1012.4 |
| 20260504033101 | 6 | 0 | 0.0 | 0.0 | 0.00 | 0.03 | 0.03 | 70 | 1012.4 |
| 20260504031604 | 6 | 0 | 0.0 | 0.0 | 0.00 | 0.03 | 0.03 | 68 | 1012.2 |
| 20260504030058 | 7 | 0 | 0.0 | 1.6 | 0.00 | 0.03 | 0.03 | 64 | 1012.1 |
| 20260504024558 | 7 | 0 | 0.0 | 3.2 | 0.00 | 0.03 | 0.03 | 58 | 1012.1 |
| 20260504023058 | 8 | 0 | 0.0 | 1.6 | 0.00 | 0.03 | 0.03 | 53 | 1012.1 |
| 20260504021602 | 8 | 0 | 0.0 | 3.2 | 0.00 | 0.03 | 0.03 | 50 | 1012.1 |
| 20260504020114 | 8 | 0 | 0.0 | 0.0 | 0.00 | 0.03 | 0.03 | 47 | 1012.0 |
| 20260504014605 | 8 | 0 | 0.0 | 0.0 | 0.00 | 0.03 | 0.03 | 47 | 1011.9 |
| 20260504013106 | 8 | 0 | 0.0 | 0.0 | 0.00 | 0.03 | 0.03 | 46 | 1011.6 |